Home   Weather   Portland   Past weeks

Flag for USA Past Weather in Portland, Maine, USA — Yesterday and Last 2 Weeks

Now
46 °F

Clear.


Feels Like: 42 °F
Forecast: 42 / 45 °F
Wind: 8 mph from East

Location: Portland - Portland International Jetport

Current Time: Apr 24, 2017 at 8:59:45 pm

Latest Report: Apr 24, 2017 at 7:51 pm


Visibility: 10 mi

Pressure: 30.22 "Hg

Humidity: 86%

Dew Point: 42 °F

Location of PortlandLocation

Past Weather in Portland — Graph

°F

Portland Temperature Yesterday

Maximum temperature yesterday: 58 °F (at 12:51 pm)
Minimum temperature yesterday: 34 °F (at 5:27 am)
Average temperature yesterday: 44 °F

High & Low Weather Summary for the Past Weeks

 TemperatureHumidityPressure
High85 °F (Apr 16, 2:51 pm)100% (Apr 12, 9:58 pm)30.61 "Hg (Apr 12, 9:58 pm)
Low30 °F (Apr 19, 2:21 am)16% (Apr 14, 2:51 pm)29.56 "Hg (Apr 16, 6:51 pm)
Average48 °F70%30.13 "Hg
* Reported Apr 9 7:51 pm — Apr 24 7:51 pm, Portland, Weather by CustomWeather, © 2017

Note: Actual official high and low records may vary slightly from our data, if they occured in-between our weather recording intervals... More about our weather records

Advertising

Portland Weather History for the Previous 24 Hours

Scroll right to see more
 ConditionsComfort  
Time TempWeatherWind HumidityBarometerVisibility
7:51 pm
Mon, Apr 24
46 °FClear.8 mph86%30.22 "Hg10 mi
6:51 pm51 °FSunny.7 mph66%30.19 "Hg10 mi
5:51 pm57 °FSunny.9 mph49%30.18 "Hg10 mi
4:51 pm58 °FSunny.12 mph44%30.17 "Hg10 mi
3:51 pm60 °FSunny.14 mph42%30.16 "Hg10 mi
2:51 pm60 °FScattered clouds.13 mph44%30.17 "Hg10 mi
1:51 pm61 °FPartly sunny.15 mph41%30.17 "Hg10 mi
12:51 pm60 °FPartly sunny.10 mph44%30.17 "Hg10 mi
11:51 am58 °FHigh level clouds.10 mph47%30.18 "Hg10 mi
10:51 am57 °FScattered clouds.7 mph49%30.18 "Hg10 mi
9:51 am54 °FScattered clouds.8 mph55%30.17 "Hg10 mi
8:51 am52 °FSunny.3 mph64%30.16 "Hg10 mi
7:51 am50 °FSunny.8 mph71%30.14 "Hg10 mi
6:51 am41 °FSunny.No wind89%30.12 "Hg10 mi
5:51 am37 °FPassing clouds.No wind89%30.10 "Hg10 mi
4:51 am35 °FPassing clouds.6 mph92%30.07 "Hg10 mi
3:51 am40 °FClear.No wind89%30.05 "Hg10 mi
2:51 am42 °FClear.No wind89%30.03 "Hg10 mi
1:51 am43 °FClear.No wind86%30.02 "Hg10 mi
12:51 am42 °FClear.No wind89%30.03 "Hg10 mi
11:51 pm
Sun, Apr 23
42 °FClear.No wind89%30.03 "Hg10 mi
10:51 pm44 °FClear.3 mph85%30.04 "Hg10 mi
9:51 pm45 °FClear.9 mph82%30.05 "Hg10 mi
8:51 pm45 °FClear.9 mph80%30.04 "Hg10 mi
Weather by CustomWeather, © 2017

See weather overviewHow to use our weather pages